• Processing (Info)

  • MPEC 2022-S06 : 2022 SA

    The following Minor Planet Electronic Circular may be linked-to from your own Web pages, but must not otherwise be redistributed electronically.

    A form allowing access to any MPEC is at the bottom of this page.


    Read MPEC 2022-S05 Read MPEC 2022-S07


    M.P.E.C. 2022-S06                            Issued 2022 September 17, 05:42 UT
    
         The Minor Planet Electronic Circulars contain information on unusual
             minor planets and routine data on comets.  They are published
        on behalf of Division F of the International Astronomical Union by the
              Minor Planet Center, Smithsonian Astrophysical Observatory,
                              Cambridge, MA 02138, U.S.A.
    
                 Prepared using the Tamkin Foundation Computer Network
    
                                  MPC@CFA.HARVARD.EDU
                URL https://www.minorplanetcenter.net/    ISSN 1523-6714
    
                                     2022 SA                                 
    
    
    Observations:
         K22S00A* C2022 09 16.15249521 47 52.883+01 45 08.82               VES006G96
         K22S00A  C2022 09 16.15813921 48 01.584+01 48 38.81               VES006G96
         K22S00A  C2022 09 16.16379621 48 10.246+01 52 09.41         19.71GVES006G96
         K22S00A KC2022 09 16.22307021 49 31.46 +02 28 07.0          19.8 VuES006H21
         K22S00A KC2022 09 16.22448921 49 33.62 +02 28 59.3          19.5 VuES006H21
         K22S00A KC2022 09 16.22590821 49 35.78 +02 29 51.2          19.7 VuES006H21
         K22S00A KC2022 09 16.22704421 49 37.53 +02 30 33.1          19.5 VuES006H21
         K22S00A mC2022 09 16.29092421 51 23.112+03 10 18.08         19.43GVES006I52
         K22S00A mC2022 09 16.29196621 51 24.685+03 10 55.67         19.18GVES006I52
         K22S00A mC2022 09 16.29216321 51 24.977+03 11 03.01         18.97GVES006I52
         K22S00A mC2022 09 16.29237321 51 25.326+03 11 10.79         19.04GVES006I52
         K22S00A KC2022 09 16.83956722 05 59.527+08 18 53.28         19.1 GVES006J95
         K22S00A KC2022 09 16.86652922 06 37.61 +08 33 50.8          19.4 GXES006958
         K22S00A KC2022 09 16.87048522 06 42.97 +08 35 56.5          19.4 GXES006958
         K22S00A KC2022 09 16.87444322 06 48.30 +08 38 00.7          19.1 GXES006958
         K22S00A KC2022 09 16.87629122 06 49.814+08 38 13.88         19.5 GVES006J95
         K22S00A KC2022 09 16.87773022 06 52.33 +08 39 38.7          19.4 GXES006I93
         K22S00A KC2022 09 16.87916322 06 53.717+08 39 43.49         19.7 GVES006J95
         K22S00A KC2022 09 16.88213922 06 57.713+08 41 17.23         19.4 GVES006J95
         K22S00A KC2022 09 16.88218722 06 58.28 +08 41 58.8          19.6 GXES006I93
         K22S00A KC2022 09 16.88659122 07 04.19 +08 44 16.8          19.3 GXES006I93
         K22S00A KC2022 09 16.92462 22 07 55.95 +09 04 24.5                XES006Z41
         K22S00A KC2022 09 16.92608 22 07 57.84 +09 05 09.5          19.0 GXES006Z41
         K22S00A KC2022 09 16.93967 22 08 15.62 +09 12 09.3          19.3 GXES006Z41
         K22S00A KC2022 09 16.94827822 08 26.063+09 15 17.79         19.5 GVES006Z99
         K22S00A KC2022 09 16.94981522 08 28.071+09 16 05.11         19.3 GVES006Z99
         K22S00A KC2022 09 16.95150122 08 30.318+09 16 56.79         19.5 GVES006Z99
         K22S00A KC2022 09 16.95163 22 08 31.30 +09 18 16.7          19.4 GXES006Z41
         K22S00A KC2022 09 17.07586022 11 42.26 +10 20 37.4          19.8 VuES006H21
         K22S00A KC2022 09 17.07761622 11 44.54 +10 21 29.5          19.5 VuES006H21
         K22S00A KC2022 09 17.07937322 11 46.81 +10 22 22.0          19.8 VuES006H21
         K22S00A KC2022 09 17.08118622 11 49.15 +10 23 16.3          19.3 VuES006H21
    
    Observer details:
    958 Observatoire de Dax.  Observers P. Dupouy, J. B. de Vanssay.  Measurer P.
        Dupouy.  0.43-m f/2.7 Reflector + CCD.
    G96 Mt. Lemmon Survey.  Observer G. J. Leonard.  Measurers E. J. Christensen,
        D. Fay, J. B. Fazekas, D. C. Fuls, A. R. Gibbs, A. D. Grauer, H. Groeller,
        J. K. Hogan, R. A. Kowalski, S. M. Larson, G. J. Leonard, D. Rankin, R. L.
        Seaman, A. Serrano, F. C. Shelly, K. W. Wierzchos.  1.5-m reflector + 10K
        CCD.
    H21 Astronomical Research Observatory, Westfield.  Observer R. Holmes.
        Measurers T. Linder, R. Holmes, L. Horn.  0.81-m f/4.0 astrograph + CCD,
        0.76-m f/3.0 astrograph + CCD.
    I52 Steward Observatory, Mt. Lemmon Station.  Observer A. Serrano.  Measurers
        E. J. Christensen, D. Fay, J. B. Fazekas, D. C. Fuls, A. R. Gibbs, A. D.
        Grauer, H. Groeller, J. K. Hogan, R. A. Kowalski, S. M. Larson, G. J.
        Leonard, D. Rankin, R. L. Seaman, A. Serrano, F. C. Shelly, K. W.
        Wierzchos.  1.0-m prime focus + CCD.
    I93 St Pardon de Conques.  Observer F. Losse.  0.40-m f/3.7 reflector + CCD.
    J95 Great Shefford.  Observers P. Birtwhistle, J. Dobney, T. Dobney, M. Ford.
        Measurer P. Birtwhistle.  0.41-m f/6.3 Schmidt-Cassegrain + CCD.
    Z41 Irydeo Observatory, Camarma de Esteruelas.  Observer F. Calvo.  0.30-m
        f/5.9 reflector + CCD.
    Z99 Clixby Observatory, Cleethorpes.  Observer A. Mickleburgh.  0.356-m f/8
        Schmidt-Cassegrain + CCD.
    
    Orbital elements:
    2022 SA                                                  Earth MOID = 0.0101 AU
    Epoch 2022 Aug. 9.0 TT = JDT 2459800.5                  Veres                   
    M 351.53883              (2000.0)            P               Q                  
    n   0.46979422     Peri.  338.72034     +0.86215929     +0.50612361             
    a   1.6388188      Node   350.77271     -0.44187675     +0.72916830             
    e   0.3902273      Incl.    8.17772     -0.24784328     +0.46060013             
    P   2.10           H   26.90          G   0.15           U   7                  
    Residuals in seconds of arc
    220916 G96  1.0+  1.3+    220916 J95  0.1-  0.3-    220916 Z41  0.6-  0.2-
    220916 G96  0.1+  0.4-    220916 958  0.6-  0.5-    220916 Z41  0.9-  0.2+
    220916 G96  1.4-  1.7-    220916 958  0.0   0.6+    220916 Z99  0.3+  0.2+
    220916 H21  0.4+  0.3+    220916 958  0.2+  0.3+    220916 Z99  0.4-  0.3+
    220916 H21  0.1+  0.3+    220916 J95  0.0   0.3+    220916 Z99  0.4-  0.3+
    220916 H21  0.2-  0.1-    220916 I93  0.3+  0.0     220916 Z41  0.0   0.2+
    220916 H21  0.1-  0.1-    220916 J95  0.1+  0.2-    220917 H21  0.2+  0.1-
    220916 I52  0.1-  0.0     220916 J95  0.5-  0.2+    220917 H21  0.3+  0.5-
    220916 I52  0.0   0.3-    220916 I93  0.0   0.3+    220917 H21  0.3+  0.4-
    220916 I52  0.1-  0.1-    220916 I93  0.3+  0.3+    220917 H21  0.4+  0.1-
    220916 I52  0.4+  0.1+    220916 Z41  0.2-  0.0
    
    Ephemeris:
    2022 SA                  a,e,i = 1.64, 0.39, 8                   q = 0.9993
    Date    TT    R. A. (2000) Decl.     Delta      r    Elong.  Phase     V
    2022 08 18    13 43 55.7 -51 57 57   0.1221  1.0040    82.6    90.5    25.5
    ...
    2022 09 02    14 46 25.0 -55 05 17   0.05861 1.0014    80.8    95.9    24.2
    ...
    2022 09 10    17 30 04.9 -52 46 59   0.02605 1.0105    96.8    81.7    21.9
    ...
    2022 09 16    21 43 15.7 +00 11 56   0.01850 1.0219   152.3    27.3    19.5
    2022 09 17    22 09 40.5 +09 46 01   0.02086 1.0242   155.0    24.5    19.7
    2022 09 18    22 31 06.7 +17 03 56   0.02388 1.0266   154.3    25.1    20.0
    ...
    2022 09 24    23 40 20.1 +35 21 08   0.04792 1.0428   144.5    33.9    21.8
    ...
    2022 10 02    00 13 32.0 +40 34 06   0.08446 1.0694   142.6    34.7    23.1
    ...
    2022 10 17    00 36 29.5 +41 04 22   0.1587  1.1320   146.1    29.4    24.5
    
    M. P. C. Staff               (C) Copyright 2022 MPC           M.P.E.C. 2022-S06
    


    Read MPEC 2022-S05 Read MPEC 2022-S07


    MPEC number:

    Enter an MPEC number in one of the following forms:

    • 1997-B01 (the full form)
    • J97B01 (the packed version of the full form)
    • B01 (the abbreviated form)